User: anonymous
Location: Shell Point
(30.0571°N, 84.2896°W)
Time: 20:23:27
(UTC-04:00)
Language:

Meteor 2-19 Rocket - Orbit

View from above orbital plane
View from above orbital plane
View from above satellite
View from above satellite

Ground track
Ground track

The orbit data is extracted from the following two-line orbital elements,

1 20671U 90057B   14232.17844830  .00000057  00000-0  37197-4 0   527
2 20671 082.5463 112.4354 0014502 340.2601 180.8600 13.84575077220255
Epoch (UTC): 20 August 2014 04:16:57
Eccentricity: 0.0014502
inclination: 82.5463°
perigee height: 937 km
apogee height: 958 km
right ascension of ascending node: 112.4354°
argument of perigee: 340.2601°
revolutions per day: 13.84575077
mean anomaly at epoch: 180.8600°
orbit number at epoch: 22025

The dashed part of the orbit path shows where the satellite is in the earth's shadow,  

DLR